This demonstration page uses our WeatherBlox Daily Observations layout. Learn more.

39.92423, -83.80882

Hourly Observations for May 18, 2017

Temp ( °F °C ) Dew Point ( °F °C ) Humidity (%) Winds ( mph kmh ) Pressure ( in mb ) Visibility ( mi km ) Precip ( " mm )
12:56 am 00:56 Partly Cloudy 74 23.3 61 16.1 64 64 S 9 15 29.86 1011 10 16.0934 0 0
1:56 am 01:56 Partly Cloudy 75 23.9 59 15 58 58 S 9 15 29.85 1011 10 16.0934 0 0
2:56 am 02:56 Mostly Clear 75 23.9 59 15 58 58 SSW 12 19 29.86 1011 10 16.0934 0 0
3:56 am 03:56 Clear 75 23.9 60 15.6 60 60 SSW 13 20 29.87 1011 10 16.0934 0 0
4:56 am 04:56 Clear 73 22.8 60 15.6 64 64 SSW 10 17 29.88 1012 10 16.0934 0 0
5:56 am 05:56 Mostly Cloudy 73 22.8 61 16.1 66 66 SSW 8 13 29.89 1012 10 16.0934 0 0
6:56 am 06:56 Cloudy 72 22.2 61 16.1 68 68 S 8 13 29.9 1013 10 16.0934 0 0
7:56 am 07:56 Mostly Cloudy 74 23.3 63 17.2 69 69 SSW 10 17 29.91 1013 10 16.0934 0 0
8:56 am 08:56 Mostly Cloudy 73 22.8 64 17.8 74 74 SW 10 17 29.93 1014 10 16.0934 0 0
9:10 am 09:10 Mostly Cloudy with Nearby Thunderstorms 73 23 64 18 74 74 SW 13 20 29.91 1013 10 16.0934 0 0.0254
9:56 am 09:56 Mostly Cloudy with Nearby Thunderstorms 66 18.9 64 17.8 93 93 SSW 13 20 29.96 1015 10 16.0934 0.14 3.556
10:18 am 10:18 Mostly Cloudy 68 20 64 18 88 88 SSW 6 9 29.94 1014 10 16.0934 0 0.0254
10:56 am 10:56 Mostly Sunny 73 22.8 68 20 84 84 SSW 12 19 29.94 1014 10 16.0934 0 0.0254
11:56 am 11:56 Mostly Cloudy 76 24.4 68 20 77 77 SW 20 31 29.94 1014 10 16.0934 0 0
12:23 pm 12:23 Mostly Cloudy 77 25 68 20 74 74 SW 20 31 29.91 1013 10 16.0934 0 0
12:56 pm 12:56 Mostly Cloudy 78 25.6 67 19.4 69 69 SW 20 31 29.94 1014 10 16.0934 0 0
1:24 pm 13:24 Partly Cloudy 79 26 66 19 65 65 SSW 17 28 29.88 1012 10 16.0934 0 0
1:56 pm 13:56 Mostly Cloudy 81 27.2 66 18.9 61 61 SW 18 30 29.92 1013 10 16.0934 0 0
2:56 pm 14:56 Partly Cloudy 81 27.2 67 19.4 62 62 SW 17 28 29.92 1013 10 16.0934 0 0
3:56 pm 15:56 Partly Cloudy 81 27.2 67 19.4 62 62 SSW 14 22 29.91 1013 10 16.0934 0 0
4:56 pm 16:56 Partly Cloudy 82 27.8 66 18.9 58 58 SW 21 33 29.91 1013 10 16.0934 0 0
5:56 pm 17:56 Mostly Sunny 82 27.8 66 18.9 58 58 SSW 20 31 29.9 1013 10 16.0934 0 0
6:56 pm 18:56 Mostly Sunny 80 26.7 65 18.3 60 60 SW 14 22 29.91 1013 10 16.0934 0 0
7:56 pm 19:56 Sunny 79 26.1 66 18.9 65 65 SW 14 22 29.91 1013 10 16.0934 0 0
8:56 pm 20:56 Clear 76 24.4 66 18.9 72 72 SW 8 13 29.92 1013 10 16.0934 0 0
9:56 pm 21:56 Mostly Clear 74 23.3 66 18.9 76 76 SW 6 9 29.94 1014 10 16.0934 0 0
10:56 pm 22:56 Cloudy 73 22.8 66 18.9 79 79 SW 3 6 29.96 1015 10 16.0934 0 0
11:52 pm 23:52 Mostly Cloudy with Light Thunderstorms 72 22 66 19 83 83 Calm 29.94 1014 10 16.0934 0.01 0.254
11:56 pm 23:56 Mostly Cloudy with Thunderstorms 71 21.7 67 19.4 87 87 Calm 29.96 1015 10 16.0934 0.01 0.254

Powered by AerisWeather